Tracking 19831 objects as of 23-Aug-2019
HD Live streaming from Space Station
objects crossing your sky now

STRV 1A

Track STRV 1A now!
10-day predictions
STRV 1A is classified as:


NORAD ID: 23125
Int'l Code: 1994-034B
Perigee: 234.9 km
Apogee: 25,967.0 km
Inclination: 7.3 °
Period: 450.7 minutes
Semi major axis: 19471 km
RCS: 0.2699 m2 (medium)
Launch date: June 17, 1994
Source: United Kingdom (UK)
Launch site: FRENCH GUIANA (FRGUI)
aabbcc
Your satellite tracking list
Your tracking list is empty




NASA's NSSDC Master Catalog

Two Line Element Set (TLE):
1 23125U 94034B   19235.11017997  .00002995  00000-0  31093-3 0  9992
2 23125   7.3213  64.0941 6607490 274.7395  18.3253  3.19514070252050
Source of the keplerian elements: AFSPC